NOAA 16 DEB, 41717

Orbit data source: Space-Track

NOAA 16 DEB, 41717 is space debris in SSO originally from a launch on Thu, 21 Sep 2000 UTC launched from the Air Force Western Test Range (AFWTR). Debris objects in space refer to the collection of defunct objects orbiting the Earth. Examples of debris include non-operational satellites, rocket bodies, and fragments generated from explosions, collisions, or faulty payload assembly.

Loading next visibility...
Identifier
41717, 2000-055PX
Orbit
SSO
Country
Flag of USUS
Related business
Manufacturer
Unknown
Mission
Spacecraft
Bus & Motor
Unknown
Mass
Unknown
Launch date (UTC)
2000-09-21 (26 years ago)
Launch vehicle
Unknown
Launch site
Air Force Western Test Range (AFWTR)
Object type
Payload
Rocket body
Debris
Shape & HBR
Unknown shape, 0.1 m
Radar Cross Section
Medium (>0.1 m² and <1 m²)

Expand to show TLE details & history
Last TLE update: 11 hours ago

TLE from 11 hours ago
0 NOAA 16 DEB
1 41717U 00055PX  26255.25274572  .00006482  00000-0  14563-2 0  9995
2 41717  98.8317  46.9531 0014526 182.5715 177.5409 14.56805933542179
Epoch: 2026-09-12T06:03Z
TLE epoch observation values (Epoch: 2026-09-12T06:03:57.230Z)
Latitude
-0.00001°
Longitude
-35.29977°
Altitude
716.746 km
Speed
7.492 km/s
True Right ascension
03h 07m 48s
True Declination
0° 00' 00"
Sunlit
Object was in full shadow at epoch
Visualization orbit readout
Latitude
Unknown
Longitude
Unknown
Altitude
Unknown
Speed
Unknown
Apparent Right ascension
Unknown
Apparent Declination
Unknown
Sunlit
N/A
Visualization observer readout
Local Sidereal Time
09:31:10
Azimuth
Unknown
Elevation
Unknown
Doppler factor
Unknown
Orbital elements
Apogee altitude
710.904 km
Perigee altitude
690.339 km
Semi-major axis
7,078.759 km
Eccentricity
0.00145
Inclination
98.8317°
RAAN
46.9531°
Arg. of periapsis
182.5715°
True anomaly
177.54803°
Mean anomaly
177.5409°
Eccentric anomaly
177.54447°
Mean motion
3.64424 °/min
Orbital period
98.79 mins
BSTAR
0.0014563
Loading maneuver chart data...
Computing Atmospheric mass density...
Loading historical data...
Loading historical data...
Loading historical data...
Loading historical data...
Loading historical data...
Loading historical data...
Loading historical data...

Documentation

Showing up to 5 results
|